{"data":{"norad_id":62316,"intl_designator":"2024-239R","name":"STARLINK-32596","alt_names":[],"object_type":"PAYLOAD","status":"ACTIVE","operator":null,"country":"US","launch_date":"2024-12-13","launch_site_code":"AFWTR","launch_vehicle":null,"mission":null,"orbit_class":"UNKNOWN","rcs_meters":null,"size_class":null,"mass_kg":null,"dimensions":null,"purposes":["comms"],"wikipedia_slug":null,"has_3d_model":false,"image_url":null,"decayed_at":null,"tle_current":{"epoch":"2026-05-24T15:21:59.630400Z","epoch_age_seconds":102562,"freshness":"FRESH","line1":"1 62316U 24239R   26144.64027350  .00016326  00000+0  49340-3 0  9992","line2":"2 62316  53.1589 201.0430 0001092  83.1388 276.9738 15.34391861 81017","mean_motion":15.34391861,"eccentricity":0.0001092,"inclination_deg":53.1589,"raan_deg":201.043,"arg_perigee_deg":83.1388,"mean_anomaly_deg":276.9738,"bstar":0.0004934,"rev_number":8101,"period_min":93.848255885659,"perigee_km":461.98040874137,"apogee_km":463.47445353313,"semimajor_km":6840.8644311373,"source":"CELESTRAK","updated_at":"2026-05-25T13:38:19.650393Z"}}}